Regional Weather Roundup
Issued by NWS

Home | Current Version | Previous Version | Graphics & Text | Print | Product List | Glossary Off
Versions: 1 2 3 4 5 6 7 8 9 10 11 12 13 14 15 16 17 18 19 20 21 22 23 24 25 26 27 28 29 30 31 32 33 34 35 36 37 38 39 40 41 42 43 44 45 46 47 48 49 50

000
ASUS43 KFSD 110110
RWRSD

WEATHER ROUNDUP FOR SOUTH DAKOTA
NATIONAL WEATHER SERVICE SIOUX FALLS SD
700 PM CST WED FEB 10 2016

NOTE: "FAIR" INDICATES FEW OR NO CLOUDS BELOW 12,000 FEET WITH NO
SIGNIFICANT WEATHER AND/OR OBSTRUCTIONS TO VISIBILITY.


SDZ001>005-009-010-012>017-110200-
NORTHWEST AND NORTH CENTRAL SOUTH DAKOTA

CITY           SKY/WX    TMP DP  RH WIND       PRES   REMARKS
BUFFALO          N/A     35  28  75 N13       30.03R WCI  26
FAITH            N/A     30  24  78 NE14      30.08R WCI  19
MOBRIDGE       CLOUDY    25  18  74 NE8       30.11R WCI  16
$$

SDZ012>016-024>037-041>051-057-063-072>074-110200-
SOUTHWEST AND SOUTH CENTRAL SOUTH DAKOTA

CITY           SKY/WX    TMP DP  RH WIND       PRES   REMARKS
RAPID CTY ARPT CLEAR     55  23  28 N12       30.05R
PIERRE         CLOUDY    29  24  82 NE14      30.11R WCI  18
CUSTER         CLEAR     45  19  35 NW9G21    30.07R
ELLSWORTH AFB  CLEAR     44  30  58 N13       30.05R
PHILIP         CLEAR     34  28  79 NE15      30.07R WCI  24
PINE RIDGE     CLOUDY    40  24  53 N6        30.03R
SPEARFISH      FAIR      41  23  48 W7        30.09R
WINNER         MOCLDY    33  26  75 E6        30.07R WCI  28
$$

SDZ004>011-016>023-039-040-110200-
NORTHEAST SOUTH DAKOTA

CITY           SKY/WX    TMP DP  RH WIND       PRES   REMARKS
ABERDEEN       LGT SNOW  15  10  80 NE9       30.21R WCI   3
WATERTOWN      CLOUDY    11   4  73 E6        30.15R WCI   1
BROOKINGS      FLURRIES  10   6  84 NE7       30.13R WCI  -1
SISSETON         N/A     11   6  81 NE5       30.22R WCI   3
$$

SDZ017-020-022-023-036>040-048>070-110200-
SOUTHEAST SOUTH DAKOTA

CITY           SKY/WX    TMP DP  RH WIND       PRES   REMARKS
SIOUX FALLS    CLOUDY    15   9  76 E10       30.13R WCI   2
HURON          CLOUDY    19  13  77 NE9       30.17R WCI   8
CHAMBERLAIN    CLOUDY    28  24  84 E7        30.09R WCI  21
MITCHELL       CLOUDY    21  16  81 E10       30.14R WCI  10
YANKTON        CLOUDY    19  16  86 E10       30.11R WCI   8
$$

ABBREVIATIONS USED IN REMARKS
   TC - TEMPERATURE IN CELSIUS
  WCI - WIND CHILL INDEX
   HX - HEAT INDEX
  VSB - VISIBILITY




USA.gov is the U.S. government's official web portal to all federal, state and local government web resources and services.